Location: Unspecified
(0.0000°N, 0.0000°E)
Time: 15:11:30
(UTC+01:00)

Tiros 1 despin weight - Visible Passes

Search period start: 04 December 2016 00:00
Search period end: 14 December 2016 00:00
Orbit: 595 x 645 km, 48.2° (Epoch: 03 December)

Date Brightness Start Highest point End Pass type
(mag) Time Alt. Az. Time Alt. Az. Time Alt. Az.
04 Dec ? 20:37:12 10° WSW 20:40:57 27° NW 20:41:42 25° NNW visible
05 Dec ? 19:12:17 10° SSW 19:16:37 58° SE 19:20:59 10° NE visible
06 Dec ? 19:29:27 10° SW 19:33:41 47° NW 19:37:57 10° NNE visible
07 Dec ? 05:57:16 10° N 06:00:50 21° NE 06:04:24 10° E visible
07 Dec ? 19:47:52 10° W 19:50:47 17° NW 19:53:42 10° N visible
08 Dec ? 06:13:19 10° NNW 06:17:56 57° NE 06:22:31 10° SE visible
09 Dec ? 04:52:12 12° NNE 04:53:30 13° NE 04:55:34 10° ENE visible
10 Dec ? 05:09:12 27° NNE 05:10:38 33° NE 05:14:50 10° ESE visible
11 Dec ? 05:26:11 43° NW 05:27:41 89° WSW 05:32:24 10° SE visible
12 Dec ? 04:05:59 13° E 04:05:59 13° E 04:06:43 10° E visible
12 Dec ? 05:43:07 25° W 05:44:46 32° SW 05:48:58 10° SSE visible
13 Dec ? 04:22:52 25° ESE 04:22:52 25° ESE 04:24:58 10° SE visible
13 Dec ? 06:00:00 10° WSW 06:01:54 13° SW 06:03:55 10° SSW visible
